Kilmarnock, Virginia, United States (22482)
Lat: 37.71N, Lon: 76.38W
Wx Zone: VAZ078
Local Info
Past Weather Observations for Yesterday

NOTE: This archive is for the closest National Weather Service station to Kilmarnock. Information may differ from the station used for current weather conditions.

Click here for Long-term Archive

Time Weather Temperature Dewpoint Humidity Pressure Winds Precip Visibility
23:55
Overcast
48°F / 9°C 46°F / 8°C 94% 29.71 in
(1006 mb)
N 3.5 mph
(N 6 kph)
- 10SM
23:35
Overcast
48°F / 9°C 46°F / 8°C 94% 29.71 in
(1006 mb)
N 4.6 mph
(N 7 kph)
- 10SM
23:15
Overcast
48°F / 9°C 46°F / 8°C 94% 29.71 in
(1006 mb)
N 3.5 mph
(N 6 kph)
- 10SM
22:55
Overcast
48°F / 9°C 45°F / 7°C 87% 29.74 in
(1007 mb)
NNW 3.5 mph
(NNW 6 kph)
0.07 in
(1.78 mm)
10SM
22:35
Overcast
46°F / 8°C 45°F / 7°C 93% 29.71 in
(1006 mb)
ENE 3.5 mph
(ENE 6 kph)
0.07 in
(1.78 mm)
5SM
22:15
Overcast
46°F / 8°C 45°F / 7°C 93% 29.71 in
(1006 mb)
Calm 0.04 in
(1.02 mm)
5SM
21:55
Overcast
46°F / 8°C 45°F / 7°C 93% 29.74 in
(1007 mb)
N 5.8 mph
(N 9 kph)
0.10 in
(2.54 mm)
7SM
21:35
Overcast
46°F / 8°C 45°F / 7°C 93% 29.71 in
(1006 mb)
N 3.5 mph
(N 6 kph)
0.08 in
(2.03 mm)
4SM
21:15
Overcast
46°F / 8°C 45°F / 7°C 93% 29.74 in
(1007 mb)
ENE 3.5 mph
(ENE 6 kph)
0.01 in
(0.25 mm)
3SM
20:55
Overcast
46°F / 8°C 45°F / 7°C 93% 29.71 in
(1006 mb)
E 6.9 mph
(E 11 kph)
0.06 in
(1.52 mm)
5SM
20:35
Overcast
46°F / 8°C 45°F / 7°C 93% 29.74 in
(1007 mb)
Calm 0.02 in
(0.51 mm)
7SM
20:15
Overcast
46°F / 8°C 45°F / 7°C 93% 29.74 in
(1007 mb)
ENE 4.6 mph
(ENE 7 kph)
- 7SM
19:55
Overcast
46°F / 8°C 45°F / 7°C 93% 29.71 in
(1006 mb)
E 8.1 mph
(E 13 kph)
0.05 in
(1.27 mm)
4SM
19:35
Overcast
48°F / 9°C 45°F / 7°C 87% 29.74 in
(1007 mb)
ESE 5.8 mph
(ESE 9 kph)
0.02 in
(0.51 mm)
3SM
19:15
Overcast
48°F / 9°C 45°F / 7°C 87% 29.77 in
(1008 mb)
N 3.5 mph
(N 6 kph)
0.01 in
(0.25 mm)
4SM
18:55
Overcast
48°F / 9°C 45°F / 7°C 87% 29.77 in
(1008 mb)
ENE 4.6 mph
(ENE 7 kph)
0.02 in
(0.51 mm)
3SM
18:35
Overcast
48°F / 9°C 45°F / 7°C 87% 29.77 in
(1008 mb)
E 3.5 mph
(E 6 kph)
0.02 in
(0.51 mm)
5SM
18:15
Overcast
48°F / 9°C 45°F / 7°C 87% 29.77 in
(1008 mb)
E 4.6 mph
(E 7 kph)
0.02 in
(0.51 mm)
3SM
17:55
Overcast
48°F / 9°C 45°F / 7°C 87% 29.8 in
(1009 mb)
E 3.5 mph
(E 6 kph)
0.09 in
(2.29 mm)
4SM
17:35
Overcast
48°F / 9°C 45°F / 7°C 87% 29.77 in
(1008 mb)
E 4.6 mph
(E 7 kph)
0.05 in
(1.27 mm)
5SM
17:15
Overcast
48°F / 9°C 45°F / 7°C 87% 29.8 in
(1009 mb)
E 8.1 mph
(E 13 kph)
0.02 in
(0.51 mm)
4SM
16:55
Overcast
48°F / 9°C 46°F / 8°C 94% 29.8 in
(1009 mb)
E 8.1 mph
(E 13 kph)
0.06 in
(1.52 mm)
5SM
16:35
Overcast
48°F / 9°C 46°F / 8°C 94% 29.8 in
(1009 mb)
E 5.8 mph
(E 9 kph)
0.04 in
(1.02 mm)
4SM
16:15
Overcast
48°F / 9°C 46°F / 8°C 94% 29.8 in
(1009 mb)
Calm 0.01 in
(0.25 mm)
4SM
15:55
Overcast
48°F / 9°C 45°F / 7°C 87% 29.8 in
(1009 mb)
E 4.6 mph
(E 7 kph)
0.06 in
(1.52 mm)
4SM
15:35
Overcast
48°F / 9°C 45°F / 7°C 87% 29.83 in
(1010 mb)
Calm 0.04 in
(1.02 mm)
7SM
15:15
Overcast
48°F / 9°C 43°F / 6°C 82% 29.83 in
(1010 mb)
ENE 4.6 mph
(ENE 7 kph)
0.02 in
(0.51 mm)
4SM
14:55
Overcast
50°F / 10°C 43°F / 6°C 76% 29.86 in
(1011 mb)
Calm 0.06 in
(1.52 mm)
5SM
14:35
Overcast
50°F / 10°C 43°F / 6°C 76% 29.86 in
(1011 mb)
Calm 0.04 in
(1.02 mm)
5SM
14:15
Overcast
50°F / 10°C 43°F / 6°C 76% 29.89 in
(1012 mb)
Calm 0.02 in
(0.51 mm)
5SM
13:55
Overcast
50°F / 10°C 43°F / 6°C 76% 29.89 in
(1012 mb)
Calm 0.05 in
(1.27 mm)
5SM
13:35
Overcast
50°F / 10°C 41°F / 5°C 71% 29.89 in
(1012 mb)
Calm 0.04 in
(1.02 mm)
10SM
13:15
Overcast
52°F / 11°C 41°F / 5°C 67% 29.92 in
(1013 mb)
Calm 0.02 in
(0.51 mm)
5SM
12:55
Overcast
52°F / 11°C 45°F / 7°C 77% 29.92 in
(1013 mb)
Calm 0.02 in
(0.51 mm)
5SM
12:35
Overcast
52°F / 11°C 37°F / 3°C 58% 29.92 in
(1013 mb)
E 3.5 mph
(E 6 kph)
- 10SM
12:15
Overcast
54°F / 12°C 34°F / 1°C 47% 29.92 in
(1013 mb)
E 3.5 mph
(E 6 kph)
- 10SM
11:55
Overcast
54°F / 12°C 37°F / 3°C 54% 29.92 in
(1013 mb)
E 4.6 mph
(E 7 kph)
0.01 in
(0.25 mm)
10SM
11:35
Overcast
54°F / 12°C 37°F / 3°C 54% 29.92 in
(1013 mb)
E 3.5 mph
(E 6 kph)
- 10SM
11:15
Mostly Cloudy
54°F / 12°C 37°F / 3°C 54% 29.95 in
(1014 mb)
SE 3.5 mph
(SE 6 kph)
- 10SM
10:55
Mostly Cloudy
54°F / 12°C 39°F / 4°C 58% 29.95 in
(1014 mb)
ESE 3.5 mph
(ESE 6 kph)
- 10SM
10:35
Mostly Cloudy
54°F / 12°C 41°F / 5°C 63% 29.95 in
(1014 mb)
SE 3.5 mph
(SE 6 kph)
- 10SM
10:15
Mostly Cloudy
54°F / 12°C 39°F / 4°C 58% 29.98 in
(1015 mb)
Calm - 10SM
09:55
Overcast
54°F / 12°C 37°F / 3°C 54% 29.98 in
(1015 mb)
Calm - 10SM
09:35
Overcast
54°F / 12°C 37°F / 3°C 54% 30.01 in
(1016 mb)
ESE 3.5 mph
(ESE 6 kph)
- 10SM
09:15
Overcast
54°F / 12°C 37°F / 3°C 54% 30.01 in
(1016 mb)
Calm - 10SM
08:55
Overcast
54°F / 12°C 36°F / 2°C 51% 30.01 in
(1016 mb)
Calm - 10SM
08:35
Overcast
52°F / 11°C 36°F / 2°C 54% 30.01 in
(1016 mb)
Calm - 10SM
08:15
Overcast
52°F / 11°C 36°F / 2°C 54% 29.98 in
(1015 mb)
N 3.5 mph
(N 6 kph)
- 10SM
07:55
Overcast
52°F / 11°C 36°F / 2°C 54% 29.98 in
(1015 mb)
NE 3.5 mph
(NE 6 kph)
- 10SM
07:35
Overcast
50°F / 10°C 37°F / 3°C 62% 29.98 in
(1015 mb)
ENE 5.8 mph
(ENE 9 kph)
- 10SM
07:15
Overcast
50°F / 10°C 36°F / 2°C 58% 29.98 in
(1015 mb)
NE 4.6 mph
(NE 7 kph)
- 10SM
06:55
Overcast
48°F / 9°C 36°F / 2°C 62% 29.98 in
(1015 mb)
NE 4.6 mph
(NE 7 kph)
- 10SM
06:35
Overcast
48°F / 9°C 37°F / 3°C 66% 29.98 in
(1015 mb)
Calm - 10SM
06:15
Mostly Cloudy
43°F / 6°C 39°F / 4°C 87% 29.98 in
(1015 mb)
N 3.5 mph
(N 6 kph)
- 10SM
05:55
Partly Cloudy
41°F / 5°C 37°F / 3°C 87% 29.98 in
(1015 mb)
Calm - 10SM
05:35
Mostly Cloudy
41°F / 5°C 37°F / 3°C 87% 29.98 in
(1015 mb)
Calm - 10SM
05:15
Partly Cloudy
39°F / 4°C 36°F / 2°C 87% 29.98 in
(1015 mb)
Calm - 10SM
04:55
Clear
41°F / 5°C 37°F / 3°C 87% 29.98 in
(1015 mb)
Calm - 10SM
04:35
Clear
41°F / 5°C 36°F / 2°C 81% 29.98 in
(1015 mb)
Calm - 10SM
04:15
Clear
39°F / 4°C 36°F / 2°C 87% 29.95 in
(1014 mb)
Calm - 10SM
03:55
Clear
41°F / 5°C 36°F / 2°C 81% 29.95 in
(1014 mb)
Calm - 10SM
03:35
Partly Cloudy
41°F / 5°C 37°F / 3°C 87% 29.98 in
(1015 mb)
Calm - 10SM
03:15
Mostly Cloudy
43°F / 6°C 37°F / 3°C 81% 29.98 in
(1015 mb)
Calm - 10SM
02:55
Overcast
41°F / 5°C 37°F / 3°C 87% 29.98 in
(1015 mb)
Calm - 10SM
02:35
Overcast
41°F / 5°C 37°F / 3°C 87% 29.95 in
(1014 mb)
Calm - 10SM
02:15
Mostly Cloudy
39°F / 4°C 36°F / 2°C 87% 29.98 in
(1015 mb)
Calm - 10SM
01:55
Partly Cloudy
37°F / 3°C 32°F / 0°C 81% 29.98 in
(1015 mb)
Calm - 10SM
01:35
Clear
39°F / 4°C 34°F / 1°C 81% 29.98 in
(1015 mb)
Calm - 10SM
01:15
Clear
37°F / 3°C 34°F / 1°C 87% 29.98 in
(1015 mb)
Calm - 10SM
00:55
Clear
39°F / 4°C 34°F / 1°C 81% 29.98 in
(1015 mb)
Calm - 10SM
00:35
Clear
37°F / 3°C 34°F / 1°C 87% 29.98 in
(1015 mb)
Calm - 10SM
00:15
Clear
39°F / 4°C 34°F / 1°C 81% 29.98 in
(1015 mb)
Calm - 10SM
Time Weather Temperature Dewpoint Humidity Pressure Winds Precip Visibility


Weather for websites

WeatherForYou.com, LLC is not responsible for any damages or problems caused by this service. Current weather conditions are obtained from the closest station including government and personal stations which may have varying degrees of accuracy. Weather forecasts are derived from the NOAA NDFD. Like all things, this site belongs to Jesus Christ... He just trusts us to maintain it. If you have any questions or comments email webmaster@weatherforyou.com

Copyright © 2015, WeatherForYou.com LLC. All rights reserved.